{"data":{"norad_id":68912,"intl_designator":"2026-097T","name":"STARLINK-37477","alt_names":[],"object_type":"PAYLOAD","status":"ACTIVE","operator":null,"country":"US","launch_date":"2026-04-30","launch_site_code":"AFWTR","launch_vehicle":null,"mission":null,"orbit_class":"UNKNOWN","rcs_meters":null,"size_class":null,"mass_kg":null,"dimensions":null,"purposes":["comms"],"wikipedia_slug":null,"has_3d_model":false,"image_url":null,"decayed_at":null,"tle_current":{"epoch":"2026-09-19T23:23:15.835776Z","epoch_age_seconds":60954,"freshness":"FRESH","line1":"1 68912U 26097T   26262.97448884  .00010832  00000+0  33731-3 0  9993","line2":"2 68912  97.2857  97.1600 0001391 119.1237 241.0146 15.33449181 22019","mean_motion":15.33449181,"eccentricity":0.0001391,"inclination_deg":97.2857,"raan_deg":97.16,"arg_perigee_deg":119.1237,"mean_anomaly_deg":241.0146,"bstar":0.00033731,"rev_number":2201,"period_min":93.905948618456,"perigee_km":464.57878061007,"apogee_km":466.48268897389,"semimajor_km":6843.667734792,"source":"CELESTRAK","updated_at":"2026-09-20T09:00:44.049548Z"}}}